Anula, Australia

7:16 PM ACST on October 24, 2017 (GMT +0930)
Anula

Weather History for 94120 - February, 2013

Change the Weather History Date:

Monday, February 18, 2013

  Actual Average Record
Temperature  
Mean Temperature 84 °F -  
Max Temperature 89 °F 89 °F - ()
Min Temperature 79 °F 76 °F - ()
Cooling Degree Days 19    
Growing Degree Days 34 (Base 50)    
Moisture  
Dew Point 77 °F    
Average Humidity 80    
Maximum Humidity 94    
Minimum Humidity 55    
Precipitation  
Precipitation 0.00 in 0.45 in - ()
Sea Level Pressure  
Sea Level Pressure 29.65 in    
Wind  
Wind Speed 6 mph ()    
Max Wind Speed 13 mph    
Max Gust Speed -    
Visibility 8.1 miles    
Events Thunderstorm    
T = Trace of Precipitation, MM = Missing Value Source: Averaged Metar Reports

Daily Weather History Graph

Daily Weather History Graph

Search for Another Location

Airport or City:

Trip Planner

Search our weather history database for the weather conditions in past years. The results will help you decide how hot, cold, wet, or windy it might be!

Date:

Astronomy

Feb. 18, 2013 Rise Set
Actual Time 6:46 AM ACST 7:14 PM ACST
Civil Twilight 6:24 AM ACST 7:35 PM ACST
Nautical Twilight 5:59 AM ACST 8:01 PM ACST
Astronomical Twilight 5:33 AM ACST 8:26 PM ACST
Moon 1:16 PM ACST (2/18) No Moon Set
Length of Visible Light 13h 10m
Length of Day
12h 27m
First Quarter, 52% of the Moon is Illuminated
Feb 18
First Quarter
Feb 26
Full
Mar 5
Last Quarter
Mar 12
New
Mar 20
First Quarter

Hourly Weather History & Observations

Time (ACST) Temp. Heat Index Dew Point Humidity Pressure Visibility Wind Dir Wind Speed Gust Speed Precip Events Conditions
12:00 AM 84 °F - 77 °F 73% 29.68 in 19 mi WNW 6.9 mph - -   Partly Cloudy
12:00 AM 84.2 °F 94.1 °F 77.0 °F 79% 29.68 in 6.2 mi WNW 6.9 mph - N/A   Mostly Cloudy
12:30 AM 83 °F - 79 °F 83% 29.69 in - SW 5.8 mph - -  
12:30 AM 82.4 °F 92.4 °F 78.8 °F 89% 29.68 in 6.2 mi SW 5.8 mph - N/A   Mostly Cloudy
1:00 AM 82.4 °F 92.4 °F 78.8 °F 89% 29.68 in 6.2 mi SSW 8.1 mph - N/A   Mostly Cloudy
1:30 AM 82.4 °F 92.4 °F 78.8 °F 89% 29.68 in 6.2 mi SSW 6.9 mph - N/A   Mostly Cloudy
2:00 AM 82.4 °F 92.4 °F 78.8 °F 89% 29.68 in 6.2 mi NW 3.5 mph - N/A   Mostly Cloudy
2:30 AM 82.4 °F 92.4 °F 78.8 °F 89% 29.65 in 6.2 mi North 2.3 mph - N/A   Mostly Cloudy
3:00 AM 82 °F - 79 °F 87% 29.66 in 19 mi North 6.9 mph - - Thunderstorm Light Thunderstorm
3:00 AM 82.4 °F 92.4 °F 78.8 °F 89% 29.65 in 6.2 mi North 6.9 mph - N/A   Mostly Cloudy
3:30 AM 80 °F - 77 °F 86% 29.65 in - NNW 5.8 mph - -  
3:30 AM 80.6 °F 87.1 °F 77.0 °F 89% 29.65 in 6.2 mi NNW 5.8 mph - N/A   Mostly Cloudy
4:00 AM 80.6 °F 87.1 °F 77.0 °F 89% 29.65 in 6.2 mi NNW 5.8 mph - N/A   Mostly Cloudy
4:30 AM 80.6 °F 87.1 °F 77.0 °F 89% 29.65 in 6.2 mi North 1.2 mph - N/A   Mostly Cloudy
5:00 AM 78.8 °F - 77.0 °F 94% 29.65 in 6.2 mi Calm Calm - N/A   Mostly Cloudy
5:30 AM 78.8 °F - 77.0 °F 94% 29.65 in - Calm Calm - N/A   Clear
6:00 AM 79 °F - 77 °F 93% 29.65 in 16 mi North 2.3 mph - -   Haze
6:00 AM 78.8 °F - 77.0 °F 94% 29.65 in 6.2 mi North 2.3 mph - N/A   Mostly Cloudy
6:30 AM 79 °F - 77 °F 92% 29.66 in - Calm Calm - -  
6:30 AM 78.8 °F - 77.0 °F 94% 29.65 in 6.2 mi Calm Calm - N/A   Mostly Cloudy
7:00 AM 78.8 °F - 77.0 °F 94% 29.65 in 6.2 mi ENE 2.3 mph - N/A   Mostly Cloudy
7:30 AM 80.6 °F 88.1 °F 78.8 °F 94% 29.68 in 6.2 mi SE 4.6 mph - N/A   Mostly Cloudy
8:00 AM 82.4 °F 92.4 °F 78.8 °F 89% 29.68 in 6.2 mi East 4.6 mph - N/A   Mostly Cloudy
8:30 AM 82.4 °F 92.4 °F 78.8 °F 89% 29.68 in 6.2 mi East 5.8 mph - N/A   Mostly Cloudy
9:00 AM 83 °F - 78 °F 81% 29.70 in 19 mi ESE 6.9 mph - -   Partly Cloudy
9:00 AM 82.4 °F 92.4 °F 78.8 °F 89% 29.68 in 6.2 mi ESE 6.9 mph - N/A   Overcast
9:30 AM 84 °F - 77 °F 75% 29.70 in - SE 5.8 mph - -  
9:30 AM 84.2 °F 94.1 °F 77.0 °F 79% 29.71 in 6.2 mi SE 5.8 mph - N/A   Overcast
10:00 AM 86.0 °F 99.3 °F 78.8 °F 79% 29.71 in 6.2 mi East 4.6 mph - N/A   Overcast
10:30 AM 86.0 °F 96.9 °F 77.0 °F 74% 29.68 in 6.2 mi SE 5.8 mph - N/A   Overcast
11:00 AM 87.8 °F 99.7 °F 77.0 °F 70% 29.68 in 6.2 mi SSE 5.8 mph - N/A   Overcast
11:30 AM 87.8 °F 99.7 °F 77.0 °F 70% 29.68 in 6.2 mi South 6.9 mph - N/A   Mostly Cloudy
12:00 PM 87 °F - 76 °F 63% 29.68 in 19 mi SSW 9.2 mph - -   Partly Cloudy
12:00 PM 87.8 °F 99.7 °F 77.0 °F 70% 29.68 in 6.2 mi South 9.2 mph - N/A   Mostly Cloudy
12:30 PM 89 °F - 75 °F 55% 29.66 in - SW 6.9 mph - -  
12:30 PM 89.6 °F 99.8 °F 75.2 °F 62% 29.65 in 6.2 mi SW 6.9 mph - N/A   Mostly Cloudy
1:00 PM 89.6 °F 99.8 °F 75.2 °F 62% 29.65 in 6.2 mi NW 12.7 mph - N/A   Mostly Cloudy
1:30 PM 87.8 °F 99.7 °F 77.0 °F 70% 29.62 in 6.2 mi WNW 11.5 mph - N/A   Mostly Cloudy
2:00 PM 87.8 °F 99.7 °F 77.0 °F 70% 29.62 in 6.2 mi WNW 9.2 mph - N/A Thunderstorm Partly Cloudy
2:30 PM 86.0 °F 96.9 °F 77.0 °F 74% 29.62 in 6.2 mi WNW 12.7 mph - N/A   Mostly Cloudy
3:00 PM 86 °F - 78 °F 70% 29.60 in 19 mi NNW 10.4 mph - -   Partly Cloudy
3:00 PM 86.0 °F 96.9 °F 77.0 °F 74% 29.59 in 6.2 mi NNW 10.4 mph - N/A   Mostly Cloudy
3:30 PM 86 °F - 76 °F 65% 29.60 in - NW 6.9 mph - -  
3:30 PM 86.0 °F 95.1 °F 75.2 °F 70% 29.59 in 6.2 mi NW 6.9 mph - N/A   Mostly Cloudy
4:00 PM 86.0 °F 96.9 °F 77.0 °F 74% 29.59 in 6.2 mi NNW 8.1 mph - N/A   Mostly Cloudy
4:30 PM 86.0 °F 96.9 °F 77.0 °F 74% 29.56 in 6.2 mi NW 8.1 mph - N/A   Mostly Cloudy
5:00 PM 86.0 °F 96.9 °F 77.0 °F 74% 29.56 in 6.2 mi WNW 10.4 mph - N/A   Mostly Cloudy
5:30 PM 84.2 °F 92.3 °F 75.2 °F 74% 29.59 in 6.2 mi West 10.4 mph - N/A   Mostly Cloudy
6:00 PM 85 °F - 76 °F 69% 29.58 in 19 mi West 9.2 mph - -   Partly Cloudy
6:00 PM 84.2 °F 94.1 °F 77.0 °F 79% 29.59 in 6.2 mi West 9.2 mph - N/A   Mostly Cloudy
6:30 PM 85 °F - 77 °F 71% 29.61 in - West 8.1 mph - -  
6:30 PM 84.2 °F 94.1 °F 77.0 °F 79% 29.59 in 6.2 mi West 8.1 mph - N/A   Mostly Cloudy
7:00 PM 84.2 °F 94.1 °F 77.0 °F 79% 29.59 in 6.2 mi WSW 8.1 mph - N/A   Mostly Cloudy
7:30 PM 84.2 °F 94.1 °F 77.0 °F 79% 29.62 in 6.2 mi WSW 5.8 mph - N/A   Mostly Cloudy
8:00 PM 82.4 °F 90.9 °F 77.0 °F 84% 29.62 in - SW 6.9 mph - N/A   Clear
8:30 PM 84.2 °F 94.1 °F 77.0 °F 79% 29.65 in - WSW 6.9 mph - N/A   Clear
9:00 PM 82.4 °F 90.9 °F 77.0 °F 84% 29.68 in - South 9.2 mph - N/A   Clear
9:30 PM 82 °F - 76 °F 78% 29.68 in - South 9.2 mph - -  
9:30 PM 82.4 °F 90.9 °F 77.0 °F 84% 29.68 in - South 9.2 mph - N/A   Clear
10:00 PM 82.4 °F 89.5 °F 75.2 °F 79% 29.68 in - South 8.1 mph - N/A   Clear
10:30 PM 80.6 °F 86.2 °F 75.2 °F 84% 29.68 in - South 6.9 mph - N/A   Clear
11:00 PM 80.6 °F 86.2 °F 75.2 °F 84% 29.68 in - South 6.9 mph - N/A   Clear
11:30 PM 80.6 °F 87.1 °F 77.0 °F 89% 29.68 in - South 8.1 mph - N/A   Clear